Location: Unspecified
(0.0000°N, 0.0000°E)
Time: 20:23:15
(UTC+00:00)

Envisat - Pass Details

Date: 28 May 2023
Orbit: 763 x 765 km, 98.2° (Epoch: 05 June)

Event Time Altitude Azimuth Distance (km) Brightness Sun altitude
Rises 03:05:00 0° 23° (NNE) 3,211 6.8 -39.5°
Reaches altitude 10° 03:07:22 10° 29° (NNE) 2,288 6.0 -38.9°
Enters shadow 03:08:59 20° 37° (NE) 1,699 5.2 -38.6°
